Wheeling, WV

1:12 PM EST on December 05, 2019 (GMT -0500)
Wheeling-Ohio County

Weather History for KHLG - October, 2019

Change the Weather History Date:

Wednesday, October 2, 2019

  Actual Average Record
Temperature  
Mean Temperature 79 °F 58 °F  
Max Temperature 88 °F 68 °F 88 °F (1927)
Min Temperature 69 °F 48 °F 28 °F (1947)
Degree Days  
Heating Degree Days 0 8  
Month to date heating degree days 0 15  
Since 1 July heating degree days 1 116  
Cooling Degree Days 14 1  
Month to date cooling degree days 29 2  
Year to date cooling degree days 975 680  
Growing Degree Days 28 (Base 50)    
Moisture  
Dew Point 65 °F    
Average Humidity 67    
Maximum Humidity 85    
Minimum Humidity 48    
Precipitation  
Precipitation 0.00 in 0.09 in 2.45 in (1929)
Month to date precipitation 0.00 0.19  
Year to date precipitation 27.98 29.96  
Sea Level Pressure  
Sea Level Pressure 29.93 in    
Wind  
Wind Speed 7 mph (WSW)    
Max Wind Speed 17 mph    
Max Gust Speed 23 mph    
Visibility 10 miles    
Events      
T = Trace of Precipitation, MM = Missing Value Source: NWS Daily Summary

Daily Weather History Graph

Daily Weather History Graph

Search for Another Location

Airport or City:

Astronomy

Oct. 02, 2019 Rise Set
Actual Time 7:19 AM EDT 7:03 PM EDT
Civil Twilight 6:52 AM EDT 7:30 PM EDT
Nautical Twilight 6:21 AM EDT 8:02 PM EDT
Astronomical Twilight 5:49 AM EDT 8:33 PM EDT
Moon 11:43 AM EDT (10/2) 9:56 PM EDT (10/2)
Length of Visible Light 12h 37m
Length of Day
11h 43m
Waxing Crescent, 20% of the Moon is Illuminated
Oct 2
Waxing Crescent
Oct 5
First Quarter
Oct 13
Full
Oct 21
Last Quarter
Oct 27
New

Hourly Weather History & Observations

Time (EDT) Temp. Heat Index Dew Point Humidity Pressure Visibility Wind Dir Wind Speed Gust Speed Precip Events Conditions
12:53 AM 73.0 °F - 64.0 °F 73% 29.94 in 10.0 mi SSW 4.6 mph - N/A   Clear
1:53 AM 73.0 °F - 64.0 °F 73% 29.95 in 10.0 mi SW 5.8 mph - N/A   Clear
2:53 AM 73.0 °F - 63.0 °F 71% 29.94 in 10.0 mi SW 4.6 mph - N/A   Clear
3:53 AM 71.1 °F - 63.0 °F 75% 29.94 in 10.0 mi SW 4.6 mph - N/A   Clear
4:53 AM 70.0 °F - 63.0 °F 78% 29.95 in 10.0 mi SW 4.6 mph - N/A   Partly Cloudy
5:53 AM 69.1 °F - 63.0 °F 81% 29.95 in 10.0 mi SSW 5.8 mph - N/A   Clear
6:53 AM 70.0 °F - 63.0 °F 78% 29.95 in 10.0 mi SSW 5.8 mph - N/A   Clear
7:53 AM 70.0 °F - 63.0 °F 78% 29.95 in 10.0 mi South 5.8 mph - N/A   Clear
8:53 AM 72.0 °F - 64.0 °F 76% 29.96 in 10.0 mi SSW 4.6 mph - N/A   Clear
9:53 AM 73.9 °F - 64.0 °F 71% 29.96 in 10.0 mi SW 5.8 mph - N/A   Clear
10:53 AM 78.1 °F - 66.0 °F 66% 29.96 in 10.0 mi SW 8.1 mph - N/A   Clear
11:53 AM 82.9 °F 85.4 °F 66.9 °F 58% 29.94 in 10.0 mi West 10.4 mph 18.4 mph N/A   Clear
12:53 PM 84.0 °F 86.5 °F 66.9 °F 56% 29.94 in 10.0 mi West 13.8 mph 20.7 mph N/A   Partly Cloudy
1:53 PM 84.9 °F 87.1 °F 66.0 °F 53% 29.92 in 10.0 mi WSW 10.4 mph - N/A   Clear
2:53 PM 84.9 °F 87.1 °F 66.0 °F 53% 29.90 in 10.0 mi West 12.7 mph 20.7 mph N/A   Partly Cloudy
3:53 PM 87.1 °F 89.9 °F 66.9 °F 51% 29.88 in 10.0 mi WSW 8.1 mph - N/A   Clear
4:53 PM 87.1 °F 88.9 °F 64.9 °F 48% 29.87 in 10.0 mi West 8.1 mph - N/A   Clear
5:53 PM 84.9 °F 87.1 °F 66.0 °F 53% 29.87 in 10.0 mi WSW 6.9 mph - N/A   Partly Cloudy
6:53 PM 84.0 °F 84.5 °F 62.1 °F 47% 29.88 in 10.0 mi West 8.1 mph - N/A   Overcast
7:53 PM 82.9 °F 84.0 °F 63.0 °F 51% 29.89 in 10.0 mi WSW 4.6 mph - N/A   Overcast
8:53 PM 80.1 °F 81.7 °F 64.0 °F 58% 29.91 in 10.0 mi NNW 5.8 mph - N/A   Overcast
9:53 PM 77.0 °F - 66.9 °F 71% 29.93 in 10.0 mi NNE 5.8 mph - N/A   Overcast
10:53 PM 75.0 °F - 68.0 °F 79% 29.93 in 10.0 mi Calm Calm - N/A   Overcast
11:53 PM 73.9 °F - 69.1 °F 85% 29.94 in 10.0 mi NNW 5.8 mph - N/A   Overcast